Location: Tel Aviv
(32.0670°N, 34.7670°E)
Time: 07:46:24
(UTC+03:00)

DUCHIFAT 1 - Pass Details

Date: 02 March 2024
Orbit: 543 x 559 km, 98.1° (Epoch: 17 April)

Event Time Altitude Azimuth Distance (km) Brightness Sun altitude
Rises 04:23:21 0° 2° (N) 2,709 ? -22.7°
Reaches altitude 10° 04:25:34 10° 355° (N) 1,815 ? -22.2°
Enters shadow 04:26:29 16° 348° (NNW) 1,467 ? -22.0°
